Карточка аэропорта UERP

Внимание!
Информация на этой странице в стадии наполнения.
Если вы не увидели какой-то информации, или заметили неточность - пожалуйста сообщите нам!
Спасибо!
Команда RU-STAFF
Название аэропортаПолярный
Название аэропорта (англ.)Poliarny
Превышение1673 ft. (509.9 m.)
Координаты66°23.85', 112°2.0999999999998'
Высота перехода700m
Эшелон переходаQFE>=714mm:FL050; QFE<714=>687:FL060; QFE<687:FL070
Коды ответчика1000
Зона ОрВДЯкутск РПИ (UEEE)
Данные METARUERP 150800Z 09003MPS CAVOK 28/04 Q1007 R36/090060 NOSIG RMK QFE711
Проноз погоды (TAF)UERP 150500Z 1506/1606 VRB01MPS 6000 SCT025 TX29/1508Z TN16/1519Z TEMPO 1506/1512 09003MPS SCT023CB
NOTAMshow/hide NOTAM
AWOS   TABLE

Информация о ВПП

ВПП Длина ВПП (м.) Покрытие Курс ВПП Частота ILS
173100Железобетон173 
353100Железобетон353108.1

Диспетчерские позиции

Позывной Наименование органа УВД Частота
UERP_CTRПолярный-Контроль132.1
UERP_TWRПолярный-Вышка124.200



Спутниковое изображение